Weather History for Iowa City, IA

Change the Weather History Date:

Friday, June 28, 2013

  Actual Average Record
Temperature  
Mean Temperature 76 °F 74 °F  
Max Temperature 85 °F 84 °F 99 °F (2012)
Min Temperature 66 °F 64 °F 47 °F (1968)
Degree Days  
Heating Degree Days 0 0  
Month to date heating degree days 21 14  
Since 1 June heating degree days 21 14  
Since 1 July heating degree days 6449 6375  
Cooling Degree Days 11 9  
Month to date cooling degree days 193 192  
Year to date cooling degree days 280 253  
Since 1 June cooling degree days 193 192  
Growing Degree Days 25 (Base 50)    
Moisture  
Dew Point 59 °F    
Average Humidity 62    
Maximum Humidity 81    
Minimum Humidity 43    
Precipitation  
Precipitation 0.00 in 0.18 in 1.69 in (1966)
Month to date precipitation 4.56 4.26  
Year to date precipitation 25.80 16.35  
Sea Level Pressure  
Sea Level Pressure 29.76 in    
Wind  
Wind Speed 13 mph (NW)    
Max Wind Speed 28 mph    
Max Gust Speed 37 mph    
Visibility 10 miles    
Events      
T = Trace of Precipitation, MM = Missing Value Source: NWS Daily Summary

Daily Weather History Graph

Daily Weather History Graph

Search for Another Location

Airport:

Trip Planner

Search our weather history database for the weather conditions in past years. The results will help you decide how hot, cold, wet, or windy it might be!

Date:

Astronomy

Jun. 28, 2013 Rise Set
Actual Time 5:34 AM CDT 8:44 PM CDT
Civil Twilight 5:00 AM CDT 9:18 PM CDT
Nautical Twilight 4:16 AM CDT 10:02 PM CDT
Astronomical Twilight 3:24 AM CDT 10:54 PM CDT
Moon No Moon Rise 11:47 AM CDT (6/28)
Length of Visible Light 16h 18m
Length of Day
15h 10m
Waning Gibbous, 66% of the Moon is Illuminated
Jun 28
Waning Gibbous
Jun 29
Last Quarter
Jul 8
New
Jul 15
First Quarter
Jul 22
Full

Hourly Weather History & Observations

Time (CDT) Temp. Heat Index Dew Point Humidity Pressure Visibility Wind Dir Wind Speed Gust Speed Precip Events Conditions
12:52 AM 71.1 °F - 64.0 °F 78% 29.83 in 10.0 mi West 8.1 mph - N/A   Clear
1:52 AM 68.0 °F - 62.1 °F 81% 29.81 in 10.0 mi WNW 5.8 mph - N/A   Clear
2:52 AM 68.0 °F - 61.0 °F 78% 29.80 in 10.0 mi WNW 6.9 mph - N/A   Clear
3:52 AM 66.9 °F - 60.1 °F 79% 29.79 in 10.0 mi WNW 8.1 mph - N/A   Clear
4:52 AM 66.0 °F - 60.1 °F 81% 29.78 in 10.0 mi WNW 6.9 mph - N/A   Clear
5:52 AM 66.9 °F - 59.0 °F 76% 29.78 in 10.0 mi NW 5.8 mph - N/A   Clear
6:52 AM 71.1 °F - 59.0 °F 66% 29.79 in 10.0 mi NW 10.4 mph - N/A   Clear
7:52 AM 73.0 °F - 60.1 °F 64% 29.81 in 10.0 mi NW 11.5 mph - N/A   Clear
8:52 AM 75.0 °F - 60.1 °F 60% 29.81 in 10.0 mi NW 13.8 mph 23.0 mph N/A   Clear
9:52 AM 77.0 °F - 61.0 °F 58% 29.80 in 10.0 mi NW 13.8 mph 19.6 mph N/A   Clear
10:52 AM 80.1 °F 80.9 °F 60.1 °F 50% 29.78 in 10.0 mi WNW 13.8 mph 20.7 mph N/A   Clear
11:52 AM 81.0 °F 81.0 °F 57.0 °F 44% 29.77 in 10.0 mi WNW 18.4 mph 27.6 mph N/A   Partly Cloudy
12:52 PM 82.0 °F 81.7 °F 57.0 °F 42% 29.76 in 10.0 mi WNW 20.7 mph 32.2 mph N/A   Clear
1:52 PM 82.9 °F 82.6 °F 57.9 °F 42% 29.75 in 10.0 mi NW 17.3 mph 27.6 mph N/A   Clear
2:52 PM 82.9 °F 82.8 °F 59.0 °F 44% 29.73 in 10.0 mi NW 20.7 mph 29.9 mph N/A   Mostly Cloudy
3:52 PM 84.9 °F 84.4 °F 59.0 °F 41% 29.72 in 10.0 mi NW 19.6 mph 33.4 mph N/A   Scattered Clouds
4:52 PM 82.9 °F 82.6 °F 57.9 °F 42% 29.72 in 10.0 mi NNW 25.3 mph 34.5 mph N/A   Clear
5:52 PM 82.0 °F 82.0 °F 57.9 °F 44% 29.71 in 10.0 mi NNW 16.1 mph 27.6 mph N/A   Clear
6:52 PM 81.0 °F 81.3 °F 59.0 °F 47% 29.70 in 10.0 mi NNW 19.6 mph 25.3 mph N/A   Clear
7:52 PM 79.0 °F - 57.9 °F 48% 29.72 in 10.0 mi NNW 17.3 mph 29.9 mph N/A   Overcast
8:52 PM 75.9 °F - 59.0 °F 56% 29.72 in 10.0 mi NW 9.2 mph - N/A   Clear
9:52 PM 75.0 °F - 59.0 °F 57% 29.72 in 10.0 mi NNW 10.4 mph - N/A   Clear
10:52 PM 73.9 °F - 59.0 °F 59% 29.72 in 10.0 mi North 11.5 mph 20.7 mph N/A   Partly Cloudy
11:52 PM 71.1 °F - 60.1 °F 68% 29.71 in 10.0 mi NW 9.2 mph - N/A   Mostly Cloudy